SCP
0 0 0 0 0 0 0 0 0 0 0 0 0 0 0 0 0 0 0 0 0 0 0 0 0 0 0 0 0 0 0 0 0 0 0 0 0 0 0 0 0 0 0 0
0 0 0 0 0 0 0 0 0 0 0 0 0 0 0 0 0 0 0 0 0 0 0 0 0 0 0 0 0 0 0 0 0 0 0 0 0 0 0 0 0 0 0 0
0 0 0 0 0 0 0 0 0 0 0 0 0 0 0 0 0 0 0 0 0 0 0 0 0 0 0 0 0 0 0 0 0 0 0 0 0 0 0 0 0 0 0 0
0 0 0 0 0 0 0 0 0 0 0 0 0 0 0 0 0 0 0 0 0 0 0 0 0 0 0 0 0 0 0 0 0 0 0 0 0 0 0 0 0 0 0 0
0 0 0 0 0 0 0 0 0 0 0 0 0 0 0 0 0 0 0 0 0 0 0 0 0 0 0 0 0 0 0 0 0 0 0 0 0 0 0 0 0 0 0 0
0 0 0 0 0 0 0 0 0 0 0 0 0 0 0 0 0 0 0 0 0 0 0 0 0 0 0 0 0 0 0 0 0 0 0 0 0 0 0 0 0 0 0 0
0 0 0 0 0 0 0 0 0 0 0 0 0 0 0 0 0 0 0 0 0 0 0 0 0 0 0 0 0 0 0 0 0 0 0 0 0 0 0 0 0 0 0 0
0 0 0 0 0 0 0 0 0 0 0 0 0 0 0 0 0 0 0 0 0 0 0 0 0 0 0 0 0 0 0 0 0 0 0 0 0 0 0 0 0 0 0 0
0 0 0 0 0 0 0 0 0 0 0 0 0 0 0 0 0 0 0 0 0 0 0 0 0 0 0 0 0 0 0 0 0 0 0 0 0 0 0 0 0 0 0 0
0 0 0 0 0 0 0 0 0 0 0 0 0 0 0 0 0 0 0 0 0 0 0 0 0 0 0 0 0 0 0 0 0 0 0 0 0 0 0 0 0 0 0 0
0 0 0 0 0 0 0 0 0 0 0 0 0 0 0 0 0 0 0 0 0 0 0 0 0 0 0 0 0 0 0 0 0 0 0 0 0 0 0 0 0 0 0 0
0 0 0 0 0 0 0 0 0 0 0 0 0 0 0 0 0 0 0 0 0 0 0 0 0 0 0 0 0 0 0 0 0 0 0 0 0 0 0 0 0 0 0 0
0 0 0 0 0 0 0 0 0 0 0 0 0 0 0 0 0 0 0 0 0 0 0 0 0 0 0 0 0 0 0 0 0 0 0 0 0 0 0 0 0 0 0 0
0 0 0 0 0 0 0 0 0 0 0 0 0 0 0 0 0 0 0 0 0 0 0 0 0 0 0 0 0 0 0 0 0 0 0 0 0 0 0 0 0 0 0 0
0 0 0 0 0 0 0 0 0 0 0 0 0 0 0 0 0 0 0 0 0 0 0 0 0 0 0 0 0 0 0 0 0 0 0 0 0 0 0 0 0 0 0 0
0 0 0 0 0 0 0 0 0 0 0 0 0 0 0 0 0 0 0 0 0 0 0 0 0 0 0 0 0 0 0 0 0 0 0 0 0 0 0 0 0 0 0 0
0 0 0 0 0 0 0 0 0 0 0 0 0 0 0 0 0 0 0 0 0 0 0 0 0 0 0 0 0 0 0 0 0 0 0 0 0 0 0 0 0 0 0 0
0 0 0 0 0 0 0 0 0 0 0 0 0 0 0 0 0 0 0 0 0 0 0 0 0 0 0 0 0 0 0 0 0 0 0 0 0 0 0 0 0 0 0 0
0 0 0 0 0 0 0 0 0 0 0 0 0 0 0 0 0 0 0 0 0 0 0 0 0 0 0 0 0 0 0 0 0 0 0 0 0 0 0 0 0 0 0 0
0 0 0 0 0 0 0 0 0 0 0 0 0 0 0 0 0 0 0 0 0 0 0 0 0 0 0 0 0 0 0 0 0 0 0 0 0 0 0 0 0 0 0 0
0 0 0 0 0 0 0 0 0 0 0 0 0 0 0 0 0 0 0 0 0 0 0 0 0 0 0 0 0 0 0 0 0 0 0 0 0 0 0 0 0 0 0 0
0 0 0 0 0 0 0 0 0 0 0 0 0 0 0 0 0 0 0 0 0 0 0 0 0 0 0 0 0 0 0 0 0 0 0 0 0 0 0 0 0 0 0 0
0 0 0 0 0 0 0 0 0 0 0 0 0 0 0 0 0 0 0 0 0 0 0 0 0 0 0 0 0 0 0 0 0 0 0 0 0 0 0 0 0 0 0 0
0 0 0 0 0 0 0 0 0 0 0 0 0 0 0 0 0 0 0 0 0 0 0 0 0 0 0 0 0 0 0 0 0 0 0 0 0 0 0 0 0 0 0 0
0 0 0 0 0 0 0 0 0 0 0 0 0 0 0 0 0 0 0 0 0 0 0 0 0 0 0 0 0 0 0 0 0 0 0 0 0 0 0 0 0 0 0 0
0 0 0 0 0 0 0 0 0 0 0 0 0 0 0 0 0 0 0 0 0 0 0 0 0 0 0 0 0 0 0 0 0 0 0 0 0 0 0 0 0 0 0 0
0 0 0 0 0 0 0 0 0 0 1 1 0 0 0 0 0 0 0 0 0 0 0 0 0 0 0 0 0 0 0 0 0 0 0 0 0 0 0 0 0 0 0 0
Wind_Speed
3 3 0 2 3 5 6 7 7 7 7 6 5 4 3 3 3 3 2 1 1 1 2 3 3 4 4 5 5 5 5 6 6 6 6 6 6 7 7 7 8 6 6 7
4 3 2 3 4 6 6 7 9 8 4 4 2 3 3 3 3 2 1 1 2 2 3 3 4 4 4 5 5 5 5 6 7 6 6 7 7 7 7 7 7 7 7 7
3 5 3 2 2 5 5 5 9 6 5 3 3 4 5 4 3 2 1 1 2 3 3 4 4 4 5 5 5 5 6 7 7 7 7 7 8 7 7 7 7 7 8 7
0 4 1 4 2 11 10 5 5 6 5 5 5 5 4 4 4 2 1 1 2 3 4 4 4 4 5 5 6 6 6 7 7 7 8 8 7 8 8 7 7 7 8 8
3 1 1 1 3 7 8 3 3 6 5 4 4 4 1 2 3 3 1 1 2 3 3 3 4 5 5 6 6 6 7 7 8 8 8 8 8 9 8 7 7 7 7 8
3 2 3 6 3 6 10 2 3 5 5 4 4 2 4 3 2 1 1 1 2 3 3 4 5 5 5 6 6 7 8 8 8 8 8 9 9 9 7 6 7 7 7 7
3 2 4 5 3 5 4 7 5 6 6 5 5 6 5 3 2 1 0 1 2 3 3 4 5 4 5 6 7 8 8 8 8 8 8 8 7 7 7 7 7 6 7 7
4 3 7 5 4 6 8 6 6 6 6 5 5 4 4 3 2 1 1 2 2 3 4 5 4 4 6 7 7 7 8 8 9 8 8 8 7 8 7 6 6 6 6 6
7 8 8 5 7 7 8 8 7 7 6 7 6 4 3 2 1 0 1 2 2 3 4 5 5 4 5 7 7 8 8 9 9 9 8 7 7 7 7 5 5 5 5 5
2 3 4 5 6 6 7 8 8 8 8 7 6 5 4 2 1 1 2 3 2 3 4 5 5 5 5 7 7 7 8 9 8 8 8 8 6 5 5 5 5 5 4 5
1 2 3 2 5 8 7 7 8 7 7 8 7 5 4 3 2 2 2 2 2 2 4 5 5 6 6 6 6 7 8 8 8 7 7 7 7 5 6 5 5 5 4 4
6 9 8 8 8 9 10 9 9 8 6 6 7 6 5 4 3 2 2 2 2 3 4 5 5 6 6 6 6 7 7 7 6 6 6 6 6 7 8 7 8 7 7 5
7 7 7 8 9 9 9 10 9 9 9 7 6 6 5 4 3 2 2 2 2 3 4 4 5 6 6 7 7 6 7 7 6 6 6 6 6 6 7 7 7 6 5 5
6 7 6 6 8 8 9 10 9 8 8 8 7 6 5 4 2 2 2 3 3 3 3 3 4 6 7 7 7 7 7 8 7 6 6 6 5 5 4 5 5 5 4 4
6 7 8 7 7 8 8 9 9 8 7 7 6 6 6 5 4 3 3 2 1 2 3 4 5 6 7 6 7 7 7 6 6 6 6 5 5 4 4 4 4 4 4 4
6 5 7 8 10 9 8 9 10 9 8 8 7 7 6 6 5 3 2 2 1 3 4 4 5 6 6 6 7 6 6 11 9 6 5 5 5 4 4 4 4 3 3 3
5 4 5 6 8 8 9 10 10 10 9 9 9 8 6 5 4 3 3 3 3 3 3 3 4 6 6 6 5 5 5 8 11 7 5 5 4 4 4 4 4 3 3 3
5 6 6 7 8 8 8 9 9 9 10 9 9 8 7 6 5 5 4 3 2 2 3 3 4 5 6 5 5 4 5 5 5 5 5 5 5 4 4 4 4 4 3 3
8 6 4 3 3 4 4 5 7 8 8 8 9 8 7 7 6 6 4 3 2 3 4 4 5 4 5 6 6 4 5 5 6 5 5 6 6 5 4 4 4 3 3 3
10 9 7 5 4 3 2 2 5 6 7 7 8 7 6 6 6 5 4 4 4 4 4 3 3 3 4 5 7 4 5 5 5 5 5 4 5 5 4 4 4 4 3 3
10 10 9 6 5 3 1 2 3 5 6 7 7 8 7 7 6 5 4 4 4 4 3 3 2 2 3 5 6 4 4 5 5 4 4 4 4 5 5 4 4 4 3 4
8 8 8 7 6 6 4 2 2 4 5 5 6 6 6 6 5 4 4 5 4 5 3 2 2 3 4 5 3 3 4 4 4 4 4 4 4 4 5 5 4 3 3 3
6 5 6 5 5 5 6 4 3 3 5 7 8 8 7 7 5 5 4 4 4 5 4 2 3 4 5 3 3 3 4 4 4 4 4 4 4 4 4 5 4 4 3 3
6 7 6 6 4 4 6 6 5 5 6 7 8 8 7 5 4 4 4 6 8 7 4 4 4 4 3 2 2 3 3 3 3 4 4 4 4 4 4 4 4 4 3 4
7 7 7 7 6 5 6 6 5 5 5 5 6 6 5 5 5 4 4 6 8 7 4 4 4 3 1 1 2 2 2 2 3 3 4 4 4 4 4 4 4 4 4 4
7 7 6 6 6 5 4 3 3 4 3 4 4 4 3 3 4 5 4 6 7 6 4 2 2 2 1 0 1 1 2 3 3 3 4 4 4 5 4 4 5 4 4 5
7 6 4 4 4 4 3 2 3 3 3 3 3 3 3 4 4 5 5 5 4 4 3 2 2 2 1 1 1 1 2 2 3 3 3 4 4 4 5 5 4 4 4 5
Wind_Direction
254 253 130 127 104 98 109 143 141 167 164 196 199 187 177 146 124 103 84 54 15 310 299 300 301 300 300 299 300 304 305 300 292 289 289 290 289 288 287 284 285 273 269 266
334 325 58 75 92 95 94 107 124 133 164 210 181 139 122 126 124 111 99 328 321 320 315 305 297 295 300 300 299 301 302 297 293 294 294 292 290 287 286 284 280 276 272 266
302 313 57 35 136 106 93 122 141 152 185 175 149 153 161 162 150 157 213 287 313 306 293 292 292 292 297 296 302 308 304 302 300 298 295 292 295 296 288 284 277 276 271 264
320 22 60 248 150 116 103 85 118 131 160 169 168 172 177 173 161 169 223 284 300 293 293 292 293 297 299 305 311 310 307 305 305 303 298 295 294 291 287 282 278 274 272 266
113 109 296 239 178 149 123 101 143 140 147 145 135 96 345 200 171 180 202 231 256 270 279 296 302 301 311 313 314 312 308 306 305 304 302 301 299 294 289 285 283 277 272 268
135 142 212 236 226 133 101 120 219 147 144 146 121 87 260 225 187 167 157 257 284 300 312 314 305 310 319 312 312 309 306 304 303 301 301 300 297 293 288 284 281 283 281 275
176 185 239 236 172 102 124 221 203 157 155 155 166 197 213 195 185 145 124 301 319 329 319 303 305 318 318 311 305 300 303 305 304 303 300 296 294 291 291 291 291 290 288 285
154 165 237 223 133 156 193 185 158 155 160 155 163 163 159 159 142 104 340 319 325 327 315 305 309 319 316 309 301 304 309 310 309 307 305 310 304 300 297 296 295 295 294 296
179 205 222 193 174 178 152 152 162 159 161 148 145 156 161 153 155 232 301 304 305 311 313 311 310 313 311 304 308 314 316 314 311 310 308 304 302 302 303 301 295 295 296 297
164 234 194 164 148 154 156 156 161 153 152 147 149 157 154 165 200 252 285 291 299 316 320 314 311 313 303 303 312 317 316 313 312 313 311 310 305 300 298 299 300 298 297 297
187 199 108 155 167 164 156 143 141 146 150 151 148 155 162 177 207 231 260 275 289 303 303 302 308 315 312 312 318 319 315 312 312 309 307 308 306 296 292 282 277 278 281 279
208 201 171 197 191 163 154 160 158 152 151 151 152 161 163 181 203 216 247 266 290 303 303 302 313 315 312 314 317 318 317 315 309 308 307 307 308 311 302 291 294 285 269 264
193 186 172 173 173 164 160 167 165 160 159 160 162 162 162 180 199 209 235 252 270 287 296 303 313 311 311 316 319 316 310 307 304 305 307 310 311 311 316 320 314 304 302 288
151 128 133 162 174 171 163 165 159 157 161 162 164 162 159 167 181 201 231 237 253 287 303 309 313 310 310 317 319 315 311 307 308 302 303 306 307 307 306 312 320 320 314 308
168 159 170 173 163 165 159 152 150 162 165 165 162 162 164 169 187 210 224 223 255 306 306 309 311 308 312 320 318 314 313 310 309 306 305 306 307 310 312 315 314 314 322 326
191 163 152 157 168 171 165 164 169 179 174 170 172 175 176 174 178 189 203 202 230 281 287 294 299 300 309 318 318 315 313 319 324 314 312 318 321 321 320 320 325 323 322 316
142 160 174 179 183 185 184 183 180 178 174 172 178 176 167 161 164 186 214 222 224 242 252 263 284 298 308 313 314 310 313 319 326 324 319 319 322 320 318 322 322 320 311 302
155 168 168 175 184 190 192 184 175 170 174 177 167 161 164 171 187 206 221 227 241 268 262 260 278 301 310 313 314 310 312 314 316 315 316 324 325 321 324 325 325 327 319 313
50 56 63 90 140 155 168 177 178 173 166 159 161 171 181 187 192 201 205 203 228 258 265 266 294 308 309 313 327 313 315 317 319 319 322 331 336 334 334 334 335 333 327 330
37 36 39 39 44 70 126 158 153 156 163 163 164 173 185 197 196 195 197 212 221 219 232 250 276 289 301 310 327 313 313 314 315 321 330 335 332 332 337 342 341 337 334 331
26 23 24 21 13 11 35 131 161 178 184 178 178 189 197 205 200 188 186 225 239 221 228 251 254 267 293 309 318 315 317 318 318 320 327 329 329 333 338 342 345 341 337 336
12 10 7 6 0 344 329 305 225 210 207 206 203 198 196 205 206 202 203 208 207 199 201 230 240 265 299 315 311 317 321 325 328 327 326 327 333 338 338 339 340 342 343 343
351 348 348 348 330 307 305 292 260 233 224 220 214 208 206 203 192 184 214 212 188 193 190 215 243 276 310 320 314 319 326 333 334 331 329 330 335 338 340 342 345 350 351 354
329 324 316 310 312 304 289 277 264 249 240 238 228 214 199 192 203 207 190 178 181 182 188 213 238 272 309 313 316 323 327 333 334 333 335 340 341 345 347 350 355 357 5 19
312 307 307 309 303 286 274 275 276 268 259 253 243 223 203 186 182 183 168 171 180 181 191 209 222 240 275 303 320 333 334 337 342 342 345 347 350 350 354 358 4 10 20 25
298 294 288 282 278 279 280 278 272 270 270 269 259 234 206 185 166 158 161 174 181 182 183 186 186 189 194 265 335 349 350 349 355 357 355 358 359 1 3 9 16 21 25 27
296 297 302 309 307 302 301 296 291 284 270 253 257 245 213 188 173 170 170 169 167 171 171 165 150 140 129 107 65 24 15 12 5 1 1 6 8 6 8 15 22 27 32 34